contact:dominique.lefevre@mio.osupytheas.fr, maurice.libes@osupytheas.fr, didier.mallarino@osupytheas.fr
Project:EMSO http://www.emso-fr.org/EMSO-France
Depth: 2436.0 m
Title:EMSO Ligure Ouest : Data MII capteur OXYGEN
DateTime,Latitude,Longitude,Optode-Type,Optode_Serial,Oxygen,Saturation_Oxygen,Temperature
DateTime,Latitude,Longitude,Optode-Type,Optode_Serial,µmol.l-1,%,degC
2017-12-11T00:00:39,42.805,6.029,4330,1995,194.577,59.505,13.288
2017-12-11T00:03:39,42.805,6.029,4330,1995,194.663,59.530,13.288
2017-12-11T00:06:39,42.805,6.029,4330,1995,194.720,59.549,13.289
2017-12-11T00:09:39,42.805,6.029,4330,1995,194.729,59.552,13.289
2017-12-11T00:12:39,42.805,6.029,4330,1995,194.626,59.520,13.289
2017-12-11T00:15:39,42.805,6.029,4330,1995,194.584,59.508,13.289
2017-12-11T00:18:39,42.805,6.029,4330,1995,194.541,59.495,13.289
2017-12-11T00:21:39,42.805,6.029,4330,1995,194.410,59.455,13.289
2017-12-11T00:24:39,42.805,6.029,4330,1995,194.283,59.415,13.289
2017-12-11T00:27:39,42.805,6.029,4330,1995,194.376,59.442,13.288
2017-12-11T00:30:39,42.805,6.029,4330,1995,194.593,59.511,13.289
2017-12-11T00:33:39,42.805,6.029,4330,1995,194.666,59.534,13.290
2017-12-11T00:36:39,42.805,6.029,4330,1995,194.525,59.488,13.288
2017-12-11T00:39:39,42.805,6.029,4330,1995,194.482,59.477,13.289
2017-12-11T00:42:39,42.805,6.029,4330,1995,194.628,59.521,13.289
2017-12-11T00:45:39,42.805,6.029,4330,1995,194.721,59.549,13.289
2017-12-11T00:48:39,42.805,6.029,4330,1995,194.763,59.563,13.289
2017-12-11T00:51:39,42.805,6.029,4330,1995,194.933,59.614,13.289
2017-12-11T00:54:39,42.805,6.029,4330,1995,194.973,59.627,13.289
2017-12-11T00:57:39,42.805,6.029,4330,1995,194.959,59.621,13.288
2017-12-11T01:00:39,42.805,6.029,4330,1995,195.052,59.650,13.288
2017-12-11T01:03:39,42.805,6.029,4330,1995,195.143,59.678,13.288
2017-12-11T01:06:39,42.805,6.029,4330,1995,195.264,59.713,13.287
2017-12-11T01:09:39,42.805,6.029,4330,1995,195.472,59.777,13.287
2017-12-11T01:12:39,42.805,6.029,4330,1995,195.655,59.833,13.287
2017-12-11T01:15:39,42.805,6.029,4330,1995,195.552,59.802,13.287
2017-12-11T01:18:39,42.805,6.029,4330,1995,195.641,59.829,13.287
2017-12-11T01:21:39,42.805,6.029,4330,1995,195.647,59.831,13.288
2017-12-11T01:24:39,42.805,6.029,4330,1995,195.822,59.883,13.287
2017-12-11T01:27:39,42.805,6.029,4330,1995,195.831,59.888,13.288
2017-12-11T01:30:39,42.805,6.029,4330,1995,195.836,59.888,13.287
2017-12-11T01:33:39,42.805,6.029,4330,1995,195.808,59.879,13.287
2017-12-11T01:36:39,42.805,6.029,4330,1995,195.792,59.877,13.289
2017-12-11T01:39:39,42.805,6.029,4330,1995,195.766,59.866,13.287
2017-12-11T01:42:39,42.805,6.029,4330,1995,195.904,59.909,13.287
2017-12-11T01:45:39,42.805,6.029,4330,1995,195.928,59.916,13.287
2017-12-11T01:48:39,42.805,6.029,4330,1995,195.857,59.894,13.287
2017-12-11T01:51:39,42.805,6.029,4330,1995,195.935,59.918,13.286
2017-12-11T01:54:39,42.805,6.029,4330,1995,195.970,59.929,13.287
2017-12-11T01:57:39,42.805,6.029,4330,1995,195.959,59.925,13.287
2017-12-11T02:00:39,42.805,6.029,4330,1995,196.027,59.946,13.287
2017-12-11T02:03:39,42.805,6.029,4330,1995,196.171,59.990,13.286
2017-12-11T02:06:39,42.805,6.029,4330,1995,196.239,60.011,13.287
2017-12-11T02:09:39,42.805,6.029,4330,1995,196.161,59.987,13.287
2017-12-11T02:12:39,42.805,6.029,4330,1995,196.189,59.995,13.287
2017-12-11T02:15:39,42.805,6.029,4330,1995,196.107,59.970,13.286
2017-12-11T02:18:39,42.805,6.029,4330,1995,196.307,60.031,13.286
2017-12-11T02:21:39,42.805,6.029,4330,1995,196.312,60.033,13.287
2017-12-11T02:24:39,42.805,6.029,4330,1995,196.237,60.011,13.287
2017-12-11T02:27:39,42.805,6.029,4330,1995,196.275,60.022,13.286
2017-12-11T02:30:39,42.805,6.029,4330,1995,196.268,60.019,13.286
2017-12-11T02:33:39,42.805,6.029,4330,1995,196.249,60.015,13.287
2017-12-11T02:36:39,42.805,6.029,4330,1995,196.254,60.015,13.286
2017-12-11T02:39:39,42.805,6.029,4330,1995,196.294,60.028,13.287
2017-12-11T02:42:39,42.805,6.029,4330,1995,196.338,60.041,13.286
2017-12-11T02:45:39,42.805,6.029,4330,1995,196.354,60.047,13.287
2017-12-11T02:48:39,42.805,6.029,4330,1995,196.345,60.043,13.286
2017-12-11T02:51:39,42.805,6.029,4330,1995,196.375,60.052,13.286
2017-12-11T02:54:39,42.805,6.029,4330,1995,196.267,60.020,13.287
2017-12-11T02:57:39,42.805,6.029,4330,1995,196.243,60.012,13.286
2017-12-11T03:00:39,42.805,6.029,4330,1995,196.202,60.000,13.287
2017-12-11T03:03:39,42.805,6.029,4330,1995,196.167,59.989,13.287
2017-12-11T03:06:39,42.805,6.029,4330,1995,196.301,60.029,13.286
2017-12-11T03:09:39,42.805,6.029,4330,1995,196.284,60.024,13.286
2017-12-11T03:12:39,42.805,6.029,4330,1995,196.333,60.039,13.286
2017-12-11T03:15:39,42.805,6.029,4330,1995,196.263,60.018,13.286
2017-12-11T03:18:39,42.805,6.029,4330,1995,196.273,60.022,13.287
2017-12-11T03:21:39,42.805,6.029,4330,1995,196.336,60.040,13.286
2017-12-11T03:24:39,42.805,6.029,4330,1995,196.331,60.039,13.286
2017-12-11T03:27:39,42.805,6.029,4330,1995,196.353,60.045,13.286
2017-12-11T03:30:39,42.805,6.029,4330,1995,196.342,60.042,13.286
2017-12-11T03:33:39,42.805,6.029,4330,1995,196.295,60.029,13.287
2017-12-11T03:36:39,42.805,6.029,4330,1995,196.344,60.042,13.286
2017-12-11T03:39:39,42.805,6.029,4330,1995,196.353,60.045,13.286
2017-12-11T03:42:39,42.805,6.029,4330,1995,196.375,60.052,13.286
2017-12-11T03:45:39,42.805,6.029,4330,1995,196.424,60.067,13.286
2017-12-11T03:48:39,42.805,6.029,4330,1995,196.406,60.062,13.286
2017-12-11T03:51:39,42.805,6.029,4330,1995,196.370,60.051,13.287
2017-12-11T03:54:39,42.805,6.029,4330,1995,196.413,60.064,13.287
2017-12-11T03:57:39,42.805,6.029,4330,1995,196.320,60.036,13.287
2017-12-11T04:00:39,42.805,6.029,4330,1995,196.370,60.052,13.288
2017-12-11T04:03:39,42.805,6.029,4330,1995,196.281,60.026,13.288
2017-12-11T04:06:39,42.805,6.029,4330,1995,196.267,60.019,13.286
2017-12-11T04:09:39,42.805,6.029,4330,1995,196.219,60.004,13.286
2017-12-11T04:12:39,42.805,6.029,4330,1995,196.292,60.026,13.286
2017-12-11T04:15:39,42.805,6.029,4330,1995,196.268,60.020,13.287
2017-12-11T04:18:39,42.805,6.029,4330,1995,196.153,59.984,13.286
2017-12-11T04:21:39,42.805,6.029,4330,1995,196.206,60.000,13.286
2017-12-11T04:24:39,42.805,6.029,4330,1995,196.313,60.034,13.287
2017-12-11T04:27:39,42.805,6.029,4330,1995,196.282,60.024,13.287
2017-12-11T04:30:39,42.805,6.029,4330,1995,196.326,60.037,13.287
2017-12-11T04:33:39,42.805,6.029,4330,1995,196.323,60.037,13.287
2017-12-11T04:36:39,42.805,6.029,4330,1995,196.320,60.035,13.286
2017-12-11T04:39:39,42.805,6.029,4330,1995,196.330,60.038,13.287
2017-12-11T04:42:39,42.805,6.029,4330,1995,196.322,60.036,13.286
2017-12-11T04:45:39,42.805,6.029,4330,1995,196.218,60.004,13.286
2017-12-11T04:48:39,42.805,6.029,4330,1995,196.323,60.037,13.287
2017-12-11T04:51:39,42.805,6.029,4330,1995,196.269,60.020,13.286
2017-12-11T04:54:39,42.805,6.029,4330,1995,196.243,60.012,13.287
2017-12-11T04:57:39,42.805,6.029,4330,1995,196.315,60.034,13.287
2017-12-11T05:00:39,42.805,6.029,4330,1995,196.215,60.004,13.287
2017-12-11T05:03:39,42.805,6.029,4330,1995,196.129,59.977,13.287
2017-12-11T05:06:39,42.805,6.029,4330,1995,196.052,59.954,13.287
2017-12-11T05:09:39,42.805,6.029,4330,1995,195.986,59.934,13.287
2017-12-11T05:12:39,42.805,6.029,4330,1995,196.026,59.946,13.287
2017-12-11T05:15:39,42.805,6.029,4330,1995,195.978,59.931,13.287
2017-12-11T05:18:39,42.805,6.029,4330,1995,195.934,59.918,13.287
2017-12-11T05:21:39,42.805,6.029,4330,1995,195.995,59.936,13.286
2017-12-11T05:24:39,42.805,6.029,4330,1995,195.979,59.931,13.287
2017-12-11T05:27:39,42.805,6.029,4330,1995,195.852,59.893,13.287
2017-12-11T05:30:39,42.805,6.029,4330,1995,195.997,59.938,13.287
2017-12-11T05:33:39,42.805,6.029,4330,1995,195.920,59.914,13.287
2017-12-11T05:36:39,42.805,6.029,4330,1995,196.004,59.939,13.287
2017-12-11T05:39:39,42.805,6.029,4330,1995,195.986,59.934,13.287
2017-12-11T05:42:39,42.805,6.029,4330,1995,195.950,59.922,13.286
2017-12-11T05:45:39,42.805,6.029,4330,1995,196.064,59.958,13.287
2017-12-11T05:48:39,42.805,6.029,4330,1995,196.034,59.948,13.286
2017-12-11T05:51:39,42.805,6.029,4330,1995,196.000,59.939,13.287
2017-12-11T05:54:39,42.805,6.029,4330,1995,195.949,59.922,13.287
2017-12-11T05:57:39,42.805,6.029,4330,1995,195.959,59.926,13.287
2017-12-11T06:00:39,42.805,6.029,4330,1995,195.767,59.867,13.287
2017-12-11T06:03:39,42.805,6.029,4330,1995,195.792,59.874,13.287
2017-12-11T06:06:39,42.805,6.029,4330,1995,195.776,59.870,13.287
2017-12-11T06:09:39,42.805,6.029,4330,1995,195.931,59.917,13.287
2017-12-11T06:12:39,42.805,6.029,4330,1995,195.884,59.903,13.287
2017-12-11T06:15:39,42.805,6.029,4330,1995,195.835,59.888,13.287
2017-12-11T06:18:39,42.805,6.029,4330,1995,195.961,59.926,13.287
2017-12-11T06:21:39,42.805,6.029,4330,1995,195.806,59.878,13.287
2017-12-11T06:24:39,42.805,6.029,4330,1995,195.938,59.919,13.287
2017-12-11T06:27:38,42.805,6.029,4330,1995,195.849,59.892,13.287
2017-12-11T06:30:38,42.805,6.029,4330,1995,195.868,59.897,13.287
2017-12-11T06:33:38,42.805,6.029,4330,1995,195.694,59.845,13.287
2017-12-11T06:36:38,42.805,6.029,4330,1995,195.786,59.873,13.287
2017-12-11T06:39:38,42.805,6.029,4330,1995,195.874,59.899,13.287
2017-12-11T06:42:38,42.805,6.029,4330,1995,195.785,59.872,13.287
2017-12-11T06:45:38,42.805,6.029,4330,1995,195.811,59.880,13.287
2017-12-11T06:48:38,42.805,6.029,4330,1995,195.952,59.923,13.287
2017-12-11T06:51:38,42.805,6.029,4330,1995,195.957,59.924,13.287
2017-12-11T06:54:38,42.805,6.029,4330,1995,195.982,59.933,13.287
2017-12-11T06:57:38,42.805,6.029,4330,1995,195.929,59.916,13.287
2017-12-11T07:00:38,42.805,6.029,4330,1995,195.943,59.920,13.286
2017-12-11T07:03:38,42.805,6.029,4330,1995,195.939,59.919,13.286
2017-12-11T07:06:38,42.805,6.029,4330,1995,195.881,59.902,13.287
2017-12-11T07:09:38,42.805,6.029,4330,1995,195.834,59.887,13.287
2017-12-11T07:12:38,42.805,6.029,4330,1995,195.996,59.936,13.286
2017-12-11T07:15:38,42.805,6.029,4330,1995,195.851,59.892,13.287
2017-12-11T07:18:38,42.805,6.029,4330,1995,195.921,59.914,13.287
2017-12-11T07:21:38,42.805,6.029,4330,1995,195.911,59.910,13.286
2017-12-11T07:24:38,42.805,6.029,4330,1995,195.836,59.887,13.286
2017-12-11T07:27:38,42.805,6.029,4330,1995,196.020,59.944,13.287
2017-12-11T07:30:38,42.805,6.029,4330,1995,195.982,59.932,13.286
2017-12-11T07:33:38,42.805,6.029,4330,1995,196.098,59.967,13.286
2017-12-11T07:36:38,42.805,6.029,4330,1995,195.974,59.929,13.286
2017-12-11T07:39:38,42.805,6.029,4330,1995,195.985,59.934,13.287
2017-12-11T07:42:38,42.805,6.029,4330,1995,195.920,59.914,13.287
2017-12-11T07:45:38,42.805,6.029,4330,1995,195.991,59.935,13.287
2017-12-11T07:48:38,42.805,6.029,4330,1995,195.826,59.884,13.287
2017-12-11T07:51:38,42.805,6.029,4330,1995,195.827,59.885,13.287
2017-12-11T07:54:38,42.805,6.029,4330,1995,195.947,59.922,13.287
2017-12-11T07:57:38,42.805,6.029,4330,1995,195.856,59.894,13.287
2017-12-11T08:00:38,42.805,6.029,4330,1995,195.772,59.868,13.287
2017-12-11T08:03:38,42.805,6.029,4330,1995,195.875,59.900,13.287
2017-12-11T08:06:38,42.805,6.029,4330,1995,195.882,59.902,13.287
2017-12-11T08:09:38,42.805,6.029,4330,1995,195.857,59.894,13.286
2017-12-11T08:12:38,42.805,6.029,4330,1995,195.900,59.907,13.287
2017-12-11T08:15:38,42.805,6.029,4330,1995,195.926,59.915,13.286
2017-12-11T08:18:38,42.805,6.029,4330,1995,195.970,59.929,13.287
2017-12-11T08:21:38,42.805,6.029,4330,1995,195.936,59.919,13.287
2017-12-11T08:24:38,42.805,6.029,4330,1995,195.993,59.935,13.286
2017-12-11T08:27:38,42.805,6.029,4330,1995,196.025,59.946,13.287
2017-12-11T08:30:38,42.805,6.029,4330,1995,196.037,59.950,13.287
2017-12-11T08:33:38,42.805,6.029,4330,1995,195.904,59.908,13.286
2017-12-11T08:36:38,42.805,6.029,4330,1995,195.837,59.888,13.287
2017-12-11T08:39:38,42.805,6.029,4330,1995,195.887,59.904,13.288
2017-12-11T08:42:38,42.805,6.029,4330,1995,195.860,59.896,13.288
2017-12-11T08:45:38,42.805,6.029,4330,1995,195.775,59.869,13.287
2017-12-11T08:48:38,42.805,6.029,4330,1995,195.907,59.909,13.287
2017-12-11T08:51:38,42.805,6.029,4330,1995,195.910,59.911,13.287
2017-12-11T08:54:38,42.805,6.029,4330,1995,195.925,59.916,13.288
2017-12-11T08:57:38,42.805,6.029,4330,1995,195.877,59.900,13.287
2017-12-11T09:00:38,42.805,6.029,4330,1995,195.759,59.865,13.287
2017-12-11T09:03:38,42.805,6.029,4330,1995,195.718,59.852,13.287
2017-12-11T09:06:38,42.805,6.029,4330,1995,195.734,59.856,13.286
2017-12-11T09:09:38,42.805,6.029,4330,1995,195.714,59.850,13.287
2017-12-11T09:12:38,42.805,6.029,4330,1995,195.722,59.852,13.286
2017-12-11T09:15:38,42.805,6.029,4330,1995,195.846,59.893,13.288
2017-12-11T09:18:38,42.805,6.029,4330,1995,195.918,59.912,13.286
2017-12-11T09:21:38,42.805,6.029,4330,1995,195.871,59.899,13.287
2017-12-11T09:24:38,42.805,6.029,4330,1995,195.789,59.873,13.286
2017-12-11T09:27:38,42.805,6.029,4330,1995,195.795,59.876,13.287
2017-12-11T09:30:38,42.805,6.029,4330,1995,195.826,59.885,13.287
2017-12-11T09:33:38,42.805,6.029,4330,1995,195.806,59.879,13.287
2017-12-11T09:36:38,42.805,6.029,4330,1995,195.821,59.884,13.287
2017-12-11T09:39:38,42.805,6.029,4330,1995,195.789,59.873,13.287
2017-12-11T09:42:38,42.805,6.029,4330,1995,195.803,59.878,13.287
2017-12-11T09:45:38,42.805,6.029,4330,1995,195.810,59.880,13.287
2017-12-11T09:48:38,42.805,6.029,4330,1995,195.738,59.858,13.287
2017-12-11T09:51:38,42.805,6.029,4330,1995,195.759,59.864,13.287
2017-12-11T09:54:38,42.805,6.029,4330,1995,195.835,59.887,13.287
2017-12-11T09:57:38,42.805,6.029,4330,1995,195.769,59.868,13.287
2017-12-11T10:00:38,42.805,6.029,4330,1995,195.816,59.882,13.287
2017-12-11T10:03:38,42.805,6.029,4330,1995,195.748,59.861,13.287
2017-12-11T10:06:38,42.805,6.029,4330,1995,195.886,59.903,13.287
2017-12-11T10:09:38,42.805,6.029,4330,1995,195.641,59.829,13.288
2017-12-11T10:12:38,42.805,6.029,4330,1995,195.607,59.818,13.287
2017-12-11T10:15:38,42.805,6.029,4330,1995,195.482,59.780,13.287
2017-12-11T10:18:38,42.805,6.029,4330,1995,195.605,59.818,13.287
2017-12-11T10:21:38,42.805,6.029,4330,1995,195.624,59.823,13.287
2017-12-11T10:24:38,42.805,6.029,4330,1995,195.491,59.784,13.288
2017-12-11T10:27:38,42.805,6.029,4330,1995,195.611,59.819,13.287
2017-12-11T10:30:38,42.805,6.029,4330,1995,195.706,59.848,13.286
2017-12-11T10:33:38,42.805,6.029,4330,1995,195.784,59.871,13.286
2017-12-11T10:36:38,42.805,6.029,4330,1995,195.882,59.901,13.286
2017-12-11T10:39:38,42.805,6.029,4330,1995,195.877,59.900,13.287
2017-12-11T10:42:38,42.805,6.029,4330,1995,196.095,59.966,13.286
2017-12-11T10:45:38,42.805,6.029,4330,1995,196.071,59.960,13.287
2017-12-11T10:48:38,42.805,6.029,4330,1995,195.916,59.912,13.287
2017-12-11T10:51:38,42.805,6.029,4330,1995,195.853,59.893,13.286
2017-12-11T10:54:38,42.805,6.029,4330,1995,195.896,59.905,13.286
2017-12-11T10:57:38,42.805,6.029,4330,1995,195.918,59.912,13.286
2017-12-11T11:00:38,42.805,6.029,4330,1995,195.858,59.894,13.286
2017-12-11T11:03:38,42.805,6.029,4330,1995,196.089,59.964,13.286
2017-12-11T11:06:38,42.805,6.029,4330,1995,195.875,59.899,13.287
2017-12-11T11:09:38,42.805,6.029,4330,1995,195.778,59.869,13.286
2017-12-11T11:12:38,42.805,6.029,4330,1995,195.835,59.887,13.286
2017-12-11T11:15:38,42.805,6.029,4330,1995,195.977,59.930,13.286
2017-12-11T11:18:38,42.805,6.029,4330,1995,196.025,59.946,13.287
2017-12-11T11:21:38,42.805,6.029,4330,1995,195.909,59.910,13.287
2017-12-11T11:24:38,42.805,6.029,4330,1995,195.997,59.936,13.286
2017-12-11T11:27:38,42.805,6.029,4330,1995,196.093,59.966,13.286
2017-12-11T11:30:38,42.805,6.029,4330,1995,196.162,59.987,13.286
2017-12-11T11:33:38,42.805,6.029,4330,1995,195.894,59.905,13.286
2017-12-11T11:36:38,42.805,6.029,4330,1995,196.001,59.938,13.286
2017-12-11T11:39:38,42.805,6.029,4330,1995,196.030,59.946,13.286
2017-12-11T11:42:38,42.805,6.029,4330,1995,195.967,59.927,13.286
2017-12-11T11:45:38,42.805,6.029,4330,1995,195.969,59.928,13.286
2017-12-11T11:48:38,42.805,6.029,4330,1995,195.874,59.899,13.287
2017-12-11T11:51:38,42.805,6.029,4330,1995,195.932,59.916,13.286
2017-12-11T11:54:38,42.805,6.029,4330,1995,196.062,59.956,13.286
2017-12-11T11:57:38,42.805,6.029,4330,1995,195.982,59.932,13.286
2017-12-11T12:00:38,42.805,6.029,4330,1995,195.956,59.924,13.287
2017-12-11T12:03:38,42.805,6.029,4330,1995,196.009,59.940,13.286
2017-12-11T12:06:38,42.805,6.029,4330,1995,196.029,59.946,13.286
2017-12-11T12:09:38,42.805,6.029,4330,1995,196.005,59.939,13.286
2017-12-11T12:12:38,42.805,6.029,4330,1995,195.841,59.889,13.286
2017-12-11T12:15:38,42.805,6.029,4330,1995,195.937,59.919,13.287
2017-12-11T12:18:38,42.805,6.029,4330,1995,195.983,59.933,13.287
2017-12-11T12:21:38,42.805,6.029,4330,1995,196.130,59.977,13.286
2017-12-11T12:24:38,42.805,6.029,4330,1995,195.916,59.913,13.287
2017-12-11T12:27:38,42.805,6.029,4330,1995,195.797,59.876,13.287
2017-12-11T12:30:38,42.805,6.029,4330,1995,195.756,59.864,13.287
2017-12-11T12:33:38,42.805,6.029,4330,1995,195.894,59.905,13.287
2017-12-11T12:36:38,42.805,6.029,4330,1995,195.903,59.908,13.286
2017-12-11T12:39:38,42.805,6.029,4330,1995,195.773,59.868,13.287
2017-12-11T12:42:38,42.805,6.029,4330,1995,196.083,59.962,13.286
2017-12-11T12:45:38,42.805,6.029,4330,1995,196.157,59.986,13.287
2017-12-11T12:48:38,42.805,6.029,4330,1995,196.061,59.957,13.287
2017-12-11T12:51:38,42.805,6.029,4330,1995,196.023,59.945,13.287
2017-12-11T12:54:38,42.805,6.029,4330,1995,195.800,59.876,13.286
2017-12-11T12:57:38,42.805,6.029,4330,1995,195.661,59.833,13.286
2017-12-11T13:00:38,42.805,6.029,4330,1995,195.643,59.828,13.286
2017-12-11T13:03:38,42.805,6.029,4330,1995,195.538,59.795,13.286
2017-12-11T13:06:38,42.805,6.029,4330,1995,195.400,59.754,13.286
2017-12-11T13:09:38,42.805,6.029,4330,1995,195.450,59.769,13.286
2017-12-11T13:12:38,42.805,6.029,4330,1995,195.502,59.784,13.286
2017-12-11T13:15:38,42.805,6.029,4330,1995,195.478,59.777,13.286
2017-12-11T13:18:38,42.805,6.029,4330,1995,195.443,59.767,13.286
2017-12-11T13:21:38,42.805,6.029,4330,1995,195.616,59.820,13.286
2017-12-11T13:24:38,42.805,6.029,4330,1995,195.505,59.786,13.286
2017-12-11T13:27:38,42.805,6.029,4330,1995,195.450,59.769,13.286
2017-12-11T13:30:38,42.805,6.029,4330,1995,195.487,59.780,13.286
2017-12-11T13:33:38,42.805,6.029,4330,1995,195.655,59.831,13.286
2017-12-11T13:36:38,42.805,6.029,4330,1995,195.730,59.854,13.286
2017-12-11T13:39:38,42.805,6.029,4330,1995,195.682,59.840,13.286
2017-12-11T13:42:38,42.805,6.029,4330,1995,195.618,59.820,13.286
2017-12-11T13:45:38,42.805,6.029,4330,1995,195.497,59.783,13.286
2017-12-11T13:48:38,42.805,6.029,4330,1995,195.503,59.785,13.286
2017-12-11T13:51:38,42.805,6.029,4330,1995,195.365,59.743,13.286
2017-12-11T13:54:38,42.805,6.029,4330,1995,195.361,59.742,13.286
2017-12-11T13:57:38,42.805,6.029,4330,1995,195.299,59.722,13.286
2017-12-11T14:00:38,42.805,6.029,4330,1995,195.232,59.703,13.287
2017-12-11T14:03:38,42.805,6.029,4330,1995,195.072,59.653,13.286
2017-12-11T14:06:38,42.805,6.029,4330,1995,195.090,59.660,13.287
2017-12-11T14:09:38,42.805,6.029,4330,1995,195.221,59.699,13.286
2017-12-11T14:12:38,42.805,6.029,4330,1995,195.259,59.710,13.286
2017-12-11T14:15:38,42.805,6.029,4330,1995,195.192,59.690,13.286
2017-12-11T14:18:38,42.805,6.029,4330,1995,195.265,59.712,13.286
2017-12-11T14:21:38,42.805,6.029,4330,1995,195.192,59.690,13.286
2017-12-11T14:24:38,42.805,6.029,4330,1995,195.201,59.692,13.286
2017-12-11T14:27:38,42.805,6.029,4330,1995,195.341,59.735,13.286
2017-12-11T14:30:38,42.805,6.029,4330,1995,195.396,59.752,13.286
2017-12-11T14:33:38,42.805,6.029,4330,1995,195.508,59.789,13.288
2017-12-11T14:36:38,42.805,6.029,4330,1995,195.652,59.831,13.286
2017-12-11T14:39:38,42.805,6.029,4330,1995,195.663,59.835,13.287
2017-12-11T14:42:38,42.805,6.029,4330,1995,195.611,59.819,13.287
2017-12-11T14:45:38,42.805,6.029,4330,1995,195.673,59.837,13.286
2017-12-11T14:48:38,42.805,6.029,4330,1995,195.725,59.853,13.286
2017-12-11T14:51:38,42.805,6.029,4330,1995,196.090,59.964,13.286
2017-12-11T14:54:38,42.805,6.029,4330,1995,195.919,59.912,13.286
2017-12-11T14:57:38,42.805,6.029,4330,1995,195.899,59.906,13.286
2017-12-11T15:00:38,42.805,6.029,4330,1995,195.834,59.887,13.286
2017-12-11T15:03:38,42.805,6.029,4330,1995,195.807,59.878,13.286
2017-12-11T15:06:38,42.805,6.029,4330,1995,195.757,59.863,13.286
2017-12-11T15:09:38,42.805,6.029,4330,1995,195.855,59.893,13.287
2017-12-11T15:12:38,42.805,6.029,4330,1995,195.933,59.917,13.286
2017-12-11T15:15:38,42.805,6.029,4330,1995,195.980,59.932,13.287
2017-12-11T15:18:38,42.805,6.029,4330,1995,195.952,59.922,13.286
2017-12-11T15:21:38,42.805,6.029,4330,1995,195.943,59.920,13.286
2017-12-11T15:24:38,42.805,6.029,4330,1995,196.133,59.977,13.286
2017-12-11T15:27:38,42.805,6.029,4330,1995,196.235,60.009,13.286
2017-12-11T15:30:38,42.805,6.029,4330,1995,196.402,60.060,13.286
2017-12-11T15:33:38,42.805,6.029,4330,1995,196.483,60.084,13.286
2017-12-11T15:36:38,42.805,6.029,4330,1995,196.385,60.055,13.286
2017-12-11T15:39:38,42.805,6.029,4330,1995,196.328,60.037,13.286
2017-12-11T15:42:38,42.805,6.029,4330,1995,196.149,59.983,13.286
2017-12-11T15:45:38,42.805,6.029,4330,1995,196.200,59.998,13.286
2017-12-11T15:48:38,42.805,6.029,4330,1995,196.370,60.050,13.286
2017-12-11T15:51:38,42.805,6.029,4330,1995,196.442,60.072,13.286
2017-12-11T15:54:38,42.805,6.029,4330,1995,196.364,60.048,13.286
2017-12-11T15:57:38,42.805,6.029,4330,1995,196.363,60.048,13.286
2017-12-11T16:00:38,42.805,6.029,4330,1995,196.407,60.061,13.286
2017-12-11T16:03:38,42.805,6.029,4330,1995,196.470,60.081,13.286
2017-12-11T16:06:38,42.805,6.029,4330,1995,196.537,60.101,13.286
2017-12-11T16:09:38,42.805,6.029,4330,1995,196.530,60.099,13.286
2017-12-11T16:12:38,42.805,6.029,4330,1995,196.531,60.099,13.286
2017-12-11T16:15:38,42.805,6.029,4330,1995,196.552,60.106,13.286
2017-12-11T16:18:38,42.805,6.029,4330,1995,196.544,60.104,13.286
2017-12-11T16:21:38,42.805,6.029,4330,1995,196.572,60.112,13.286
2017-12-11T16:24:38,42.805,6.029,4330,1995,196.472,60.081,13.286
2017-12-11T16:27:38,42.805,6.029,4330,1995,196.553,60.106,13.286
2017-12-11T16:30:38,42.805,6.029,4330,1995,196.697,60.149,13.286
2017-12-11T16:33:38,42.805,6.029,4330,1995,196.723,60.158,13.286
2017-12-11T16:36:38,42.805,6.029,4330,1995,196.631,60.130,13.286
2017-12-11T16:39:38,42.805,6.029,4330,1995,196.647,60.135,13.286
2017-12-11T16:42:38,42.805,6.029,4330,1995,196.642,60.134,13.286
2017-12-11T16:45:38,42.805,6.029,4330,1995,196.714,60.155,13.286
2017-12-11T16:48:38,42.805,6.029,4330,1995,196.857,60.198,13.286
2017-12-11T16:51:38,42.805,6.029,4330,1995,196.896,60.210,13.286
2017-12-11T16:54:38,42.805,6.029,4330,1995,196.885,60.207,13.286
2017-12-11T16:57:38,42.805,6.029,4330,1995,196.921,60.218,13.286
2017-12-11T17:00:38,42.805,6.029,4330,1995,196.965,60.232,13.286
2017-12-11T17:03:38,42.805,6.029,4330,1995,196.965,60.231,13.286
2017-12-11T17:06:38,42.805,6.029,4330,1995,196.958,60.230,13.286
2017-12-11T17:09:38,42.805,6.029,4330,1995,197.006,60.245,13.286
2017-12-11T17:12:38,42.805,6.029,4330,1995,196.957,60.229,13.286
2017-12-11T17:15:38,42.805,6.029,4330,1995,197.015,60.247,13.286
2017-12-11T17:18:38,42.805,6.029,4330,1995,197.038,60.255,13.286
2017-12-11T17:21:38,42.805,6.029,4330,1995,196.908,60.215,13.286
2017-12-11T17:24:38,42.805,6.029,4330,1995,196.964,60.232,13.286
2017-12-11T17:27:38,42.805,6.029,4330,1995,196.846,60.196,13.286
2017-12-11T17:30:38,42.805,6.029,4330,1995,196.866,60.202,13.286
2017-12-11T17:33:38,42.805,6.029,4330,1995,196.872,60.203,13.286
2017-12-11T17:36:38,42.805,6.029,4330,1995,196.924,60.219,13.286
2017-12-11T17:39:38,42.805,6.029,4330,1995,196.885,60.207,13.286
2017-12-11T17:42:38,42.805,6.029,4330,1995,196.865,60.201,13.286
2017-12-11T17:45:38,42.805,6.029,4330,1995,196.729,60.160,13.286
2017-12-11T17:48:38,42.805,6.029,4330,1995,196.733,60.161,13.286
2017-12-11T17:51:38,42.805,6.029,4330,1995,196.655,60.137,13.286
2017-12-11T17:54:38,42.805,6.029,4330,1995,196.568,60.111,13.286
2017-12-11T17:57:38,42.805,6.029,4330,1995,196.443,60.072,13.286
2017-12-11T18:00:38,42.805,6.029,4330,1995,196.482,60.084,13.286
2017-12-11T18:03:38,42.805,6.029,4330,1995,196.384,60.055,13.286
2017-12-11T18:06:38,42.805,6.029,4330,1995,196.435,60.070,13.286